RYR349 LEPA-EDNY

Flight info

Callsign RYR349
Flight time 1h 54m
Altitude 32000
Route MEROS DCT LAPIT DCT CHELY DCT LUMAS DCT UNANA/N0436F300 DCT STP DCT RAPED DCT PIGOS DCT EKSID DCT NOSTA DCT NOPMU DCT LAGEN DCT TAGIP DCT TISAX DCT UNIMI L12 MOGTI P66 KPT KPT1F
Aircraft A320/M-SDE3FGHIRWY/LB1

Departure

Time 2026-04-26 19:02
Airport Palma de Mallorca Airport (LEPA)

Arrival

Time 2026-04-26 20:57
Airport Bodensee Airport Friedrichshafen (EDNY)
Time Latitude Longitude Altitude Speed Heading
2026-04-26 18:23 39.54799 2.73605 30 ft 0 kts 58°
2026-04-26 18:49 39.54787 2.73579 30 ft 4 kts 58°
2026-04-26 18:49 39.54773 2.73550 30 ft 4 kts 58°
2026-04-26 18:50 39.54762 2.73526 30 ft 4 kts 60°
2026-04-26 18:50 39.54751 2.73494 30 ft 4 kts 79°
2026-04-26 18:50 39.54752 2.73462 30 ft 4 kts 118°
2026-04-26 18:50 39.54758 2.73449 30 ft 4 kts 148°
2026-04-26 18:51 39.54735 2.73468 30 ft 4 kts 148°
2026-04-26 18:51 39.54712 2.73486 30 ft 4 kts 148°
2026-04-26 18:51 39.54689 2.73504 30 ft 4 kts 148°
2026-04-26 18:51 39.54667 2.73521 30 ft 2 kts 148°
2026-04-26 18:52 39.54666 2.73522 30 ft 0 kts 148°
2026-04-26 18:55 39.54647 2.73538 30 ft 9 kts 147°
2026-04-26 18:55 39.54619 2.73593 30 ft 6 kts 105°
2026-04-26 18:55 39.54614 2.73630 30 ft 3 kts 57°
2026-04-26 18:55 39.54638 2.73649 30 ft 9 kts 26°
2026-04-26 18:56 39.54680 2.73714 30 ft 9 kts 57°
2026-04-26 18:56 39.54711 2.73777 30 ft 8 kts 57°
2026-04-26 18:56 39.54736 2.73831 30 ft 6 kts 62°
2026-04-26 18:56 39.54756 2.73877 30 ft 5 kts 58°
2026-04-26 18:57 39.54774 2.73913 30 ft 4 kts 57°
2026-04-26 18:57 39.54788 2.73941 30 ft 9 kts 56°
2026-04-26 18:57 39.54869 2.73985 30 ft 10 kts 330°
2026-04-26 18:57 39.54926 2.73954 30 ft 8 kts 19°
2026-04-26 18:58 39.54963 2.74009 30 ft 11 kts 24°
2026-04-26 18:58 39.55069 2.73937 30 ft 21 kts 328°
2026-04-26 18:58 39.55196 2.73835 30 ft 22 kts 328°
2026-04-26 18:58 39.55332 2.73729 30 ft 23 kts 329°
2026-04-26 18:59 39.55476 2.73618 30 ft 25 kts 328°
2026-04-26 18:59 39.55611 2.73510 30 ft 17 kts 330°
2026-04-26 18:59 39.55693 2.73578 30 ft 15 kts 58°
2026-04-26 18:59 39.55742 2.73686 30 ft 13 kts 58°
2026-04-26 19:00 39.55789 2.73779 30 ft 11 kts 57°
2026-04-26 19:00 39.55827 2.73862 30 ft 10 kts 58°
2026-04-26 19:00 39.55875 2.73905 30 ft 8 kts 354°
2026-04-26 19:00 39.55917 2.73872 30 ft 6 kts 326°
2026-04-26 19:01 39.55953 2.73843 30 ft 8 kts 329°
2026-04-26 19:01 39.55992 2.73760 30 ft 14 kts 243°
2026-04-26 19:01 39.55922 2.73611 30 ft 39 kts 238°
2026-04-26 19:01 39.55650 2.73041 30 ft 106 kts 239°
2026-04-26 19:02 39.55164 2.72013 33 ft 159 kts 239°
2026-04-26 19:02 39.54562 2.70768 587 ft 160 kts 237°
2026-04-26 19:02 39.53977 2.69550 1250 ft 160 kts 237°
2026-04-26 19:02 39.53583 2.68712 1515 ft 171 kts 238°
2026-04-26 19:03 39.52682 2.66798 1915 ft 201 kts 237°
2026-04-26 19:03 39.51910 2.65166 2226 ft 222 kts 237°
2026-04-26 19:03 39.51093 2.63432 2796 ft 228 kts 237°
2026-04-26 19:03 39.50255 2.61665 3509 ft 230 kts 235°
2026-04-26 19:04 39.49174 2.60114 4066 ft 241 kts 215°
2026-04-26 19:04 39.47633 2.59052 4428 ft 263 kts 201°
2026-04-26 19:04 39.45939 2.58115 5098 ft 272 kts 201°
2026-04-26 19:04 39.44184 2.57144 5922 ft 276 kts 199°
2026-04-26 19:05 39.40552 2.57754 7447 ft 277 kts 142°
2026-04-26 19:05 39.39228 2.59553 8266 ft 279 kts 120°
2026-04-26 19:05 39.38569 2.61897 9056 ft 281 kts 96°
2026-04-26 19:06 39.38622 2.64433 9845 ft 285 kts 85°
2026-04-26 19:06 39.38809 2.66999 10545 ft 291 kts 85°
2026-04-26 19:06 39.39013 2.69704 10770 ft 314 kts 84°
2026-04-26 19:06 39.39234 2.72616 11026 ft 334 kts 85°
2026-04-26 19:07 39.39453 2.75639 11618 ft 341 kts 85°
2026-04-26 19:07 39.39664 2.78708 12312 ft 345 kts 85°
2026-04-26 19:07 39.39871 2.81810 13021 ft 348 kts 85°
2026-04-26 19:07 39.40077 2.84945 13722 ft 352 kts 85°
2026-04-26 19:08 39.40286 2.88114 14049 ft 354 kts 85°
2026-04-26 19:08 39.40498 2.91295 14383 ft 357 kts 85°
2026-04-26 19:08 39.40714 2.94496 15039 ft 358 kts 85°
2026-04-26 19:08 39.40930 2.97715 15672 ft 361 kts 85°
2026-04-26 19:09 39.41146 3.00962 16287 ft 364 kts 85°
2026-04-26 19:09 39.41360 3.04234 16892 ft 367 kts 85°
2026-04-26 19:09 39.41575 3.07534 17472 ft 370 kts 85°
2026-04-26 19:09 39.41789 3.10865 18056 ft 374 kts 85°
2026-04-26 19:10 39.42002 3.14227 18620 ft 376 kts 85°
2026-04-26 19:10 39.42217 3.17616 19138 ft 379 kts 85°
2026-04-26 19:10 39.42435 3.21027 19649 ft 382 kts 85°
2026-04-26 19:10 39.42857 3.24436 20158 ft 386 kts 75°
2026-04-26 19:11 39.43756 3.27712 20665 ft 389 kts 65°
2026-04-26 19:11 39.45082 3.30777 21181 ft 392 kts 59°
2026-04-26 19:11 39.46495 3.33812 21674 ft 395 kts 59°
2026-04-26 19:11 39.47913 3.36877 22169 ft 398 kts 59°
2026-04-26 19:12 39.49339 3.39972 22654 ft 401 kts 59°
2026-04-26 19:12 39.50771 3.43087 23121 ft 404 kts 59°
2026-04-26 19:12 39.52212 3.46228 23583 ft 407 kts 59°
2026-04-26 19:12 39.53659 3.49397 23964 ft 410 kts 59°
2026-04-26 19:13 39.55117 3.52593 24327 ft 413 kts 59°
2026-04-26 19:13 39.56586 3.55809 24692 ft 416 kts 59°
2026-04-26 19:13 39.58064 3.59041 25055 ft 418 kts 59°
2026-04-26 19:13 39.59551 3.62291 25404 ft 420 kts 59°
2026-04-26 19:14 39.61045 3.65561 25754 ft 422 kts 59°
2026-04-26 19:14 39.62524 3.68806 26091 ft 425 kts 60°
2026-04-26 19:14 39.64028 3.72111 26435 ft 427 kts 59°
2026-04-26 19:14 39.65047 3.74354 26648 ft 428 kts 60°
2026-04-26 19:15 39.67058 3.78778 27089 ft 431 kts 59°
2026-04-26 19:15 39.68584 3.82139 27414 ft 433 kts 60°
2026-04-26 19:15 39.70113 3.85512 27760 ft 434 kts 59°
2026-04-26 19:15 39.71646 3.88904 28058 ft 437 kts 60°
2026-04-26 19:16 39.73184 3.92311 28371 ft 438 kts 60°
2026-04-26 19:16 39.74731 3.95739 28654 ft 441 kts 60°
2026-04-26 19:16 39.76285 3.99183 28941 ft 443 kts 60°
2026-04-26 19:16 39.77845 4.02644 29216 ft 445 kts 60°
2026-04-26 19:17 39.79410 4.06122 29494 ft 446 kts 60°
2026-04-26 19:17 39.80979 4.09612 29758 ft 448 kts 60°
2026-04-26 19:17 39.82569 4.13110 30015 ft 450 kts 57°
2026-04-26 19:17 39.84474 4.16346 30243 ft 452 kts 47°
2026-04-26 19:18 39.86796 4.19111 30447 ft 454 kts 37°
2026-04-26 19:18 39.89469 4.21310 30632 ft 456 kts 27°
2026-04-26 19:18 39.92409 4.22867 30860 ft 457 kts 17°
2026-04-26 19:18 39.95508 4.23768 31130 ft 457 kts 10°
2026-04-26 19:19 39.98634 4.24496 31392 ft 456 kts 10°
2026-04-26 19:19 40.01757 4.25228 31659 ft 456 kts 10°
2026-04-26 19:19 40.04875 4.25962 31932 ft 455 kts
2026-04-26 19:19 40.07995 4.26699 32117 ft 455 kts
2026-04-26 19:20 40.11082 4.27424 32160 ft 447 kts
2026-04-26 19:20 40.17198 4.28871 32278 ft 450 kts
2026-04-26 19:20 40.20280 4.29601 32496 ft 451 kts
2026-04-26 19:21 40.23368 4.30332 32754 ft 451 kts
2026-04-26 19:21 40.26450 4.31059 33050 ft 450 kts
2026-04-26 19:21 40.29529 4.31785 33340 ft 449 kts
2026-04-26 19:21 40.32604 4.32512 33636 ft 449 kts
2026-04-26 19:22 40.35634 4.33228 33921 ft 448 kts
2026-04-26 19:22 40.38740 4.33966 34207 ft 447 kts
2026-04-26 19:22 40.41758 4.34685 34459 ft 447 kts
2026-04-26 19:22 40.44812 4.35414 34705 ft 446 kts
2026-04-26 19:23 40.47861 4.36143 34940 ft 445 kts
2026-04-26 19:23 40.50913 4.36869 35114 ft 445 kts
2026-04-26 19:23 40.53999 4.37605 35160 ft 445 kts
2026-04-26 19:24 40.60044 4.39057 35157 ft 444 kts
2026-04-26 19:24 40.69169 4.41241 35157 ft 444 kts
2026-04-26 19:25 40.73237 4.42217 35154 ft 444 kts
2026-04-26 19:25 40.81331 4.44163 35156 ft 444 kts
2026-04-26 19:26 40.87409 4.45624 35160 ft 444 kts
2026-04-26 19:26 40.93489 4.47091 35159 ft 444 kts
2026-04-26 19:27 40.99573 4.48563 35160 ft 444 kts
2026-04-26 19:27 41.05652 4.50046 35166 ft 444 kts
2026-04-26 19:28 41.11729 4.51532 35162 ft 444 kts
2026-04-26 19:28 41.17802 4.53008 35162 ft 444 kts
2026-04-26 19:29 41.23874 4.54491 35162 ft 444 kts
2026-04-26 19:29 41.29940 4.55976 35402 ft 442 kts
2026-04-26 19:30 41.32959 4.56712 35637 ft 441 kts
2026-04-26 19:30 41.35969 4.57447 35891 ft 439 kts
2026-04-26 19:30 41.38934 4.58173 36091 ft 440 kts
2026-04-26 19:30 41.39953 4.58422 36125 ft 440 kts
2026-04-26 19:31 41.48007 4.60407 36157 ft 443 kts
2026-04-26 19:31 41.54063 4.61902 36150 ft 443 kts
2026-04-26 19:32 41.60121 4.63397 36150 ft 443 kts
2026-04-26 19:32 41.66178 4.64886 36150 ft 443 kts
2026-04-26 19:33 41.72105 4.67141 36155 ft 447 kts 23°
2026-04-26 19:33 41.77253 4.71829 36149 ft 452 kts 42°
2026-04-26 19:34 41.80982 4.76745 36149 ft 453 kts 43°
2026-04-26 19:34 41.85470 4.82677 36007 ft 453 kts 44°
2026-04-26 19:35 41.87712 4.85644 36161 ft 453 kts 43°
2026-04-26 19:35 41.89946 4.88605 36148 ft 451 kts 43°
2026-04-26 19:35 41.94405 4.94523 36142 ft 450 kts 43°
2026-04-26 19:36 41.98104 4.99447 36139 ft 451 kts 43°
2026-04-26 19:36 42.03305 5.06385 36138 ft 451 kts 43°
2026-04-26 19:37 42.07759 5.12327 36142 ft 451 kts 43°
2026-04-26 19:37 42.12209 5.18286 36144 ft 451 kts 42°
2026-04-26 19:38 42.16664 5.24250 36142 ft 452 kts 42°
2026-04-26 19:38 42.21119 5.30225 36143 ft 452 kts 43°
2026-04-26 19:39 42.25538 5.36187 36141 ft 452 kts 43°
2026-04-26 19:39 42.29986 5.42194 36146 ft 453 kts 43°
2026-04-26 19:40 42.34442 5.48215 36142 ft 453 kts 43°
2026-04-26 19:40 42.38898 5.54245 36138 ft 453 kts 43°
2026-04-26 19:41 42.43349 5.60297 36139 ft 454 kts 43°
2026-04-26 19:41 42.47044 5.65338 36140 ft 454 kts 43°
2026-04-26 19:42 42.52251 5.72429 36142 ft 454 kts 43°
2026-04-26 19:42 42.56712 5.78516 36141 ft 455 kts 43°
2026-04-26 19:43 42.61167 5.84625 36142 ft 455 kts 43°
2026-04-26 19:43 42.65619 5.90745 36145 ft 456 kts 43°
2026-04-26 19:44 42.70075 5.96877 36146 ft 456 kts 43°
2026-04-26 19:44 42.74527 6.03019 36150 ft 456 kts 43°
2026-04-26 19:45 42.78977 6.09176 36142 ft 456 kts 43°
2026-04-26 19:45 42.83430 6.15340 36145 ft 456 kts 43°
2026-04-26 19:46 42.88105 6.21160 36147 ft 455 kts 37°
2026-04-26 19:46 42.92954 6.26708 36163 ft 455 kts 37°
2026-04-26 19:47 42.96984 6.31333 36163 ft 456 kts 38°
2026-04-26 19:47 43.02625 6.37812 36162 ft 456 kts 38°
2026-04-26 19:48 43.07475 6.43404 36171 ft 456 kts 38°
2026-04-26 19:48 43.12322 6.49013 36164 ft 457 kts 38°
2026-04-26 19:49 43.17174 6.54629 36166 ft 457 kts 38°
2026-04-26 19:49 43.21924 6.60430 36160 ft 459 kts 46°
2026-04-26 19:50 43.25789 6.67418 36168 ft 461 kts 52°
2026-04-26 19:50 43.29547 6.74545 36170 ft 461 kts 52°
2026-04-26 19:51 43.33319 6.81671 36174 ft 461 kts 52°
2026-04-26 19:51 43.37083 6.88808 36171 ft 461 kts 52°
2026-04-26 19:52 43.40830 6.95972 36172 ft 462 kts 52°
2026-04-26 19:52 43.44578 7.03143 36182 ft 462 kts 53°
2026-04-26 19:53 43.48326 7.10319 36182 ft 461 kts 53°
2026-04-26 19:53 43.52068 7.17500 36181 ft 461 kts 53°
2026-04-26 19:54 43.55809 7.24690 36181 ft 461 kts 53°
2026-04-26 19:54 43.59542 7.31892 36177 ft 462 kts 53°
2026-04-26 19:55 43.63266 7.39103 36188 ft 461 kts 53°
2026-04-26 19:55 43.66962 7.46268 36187 ft 461 kts 53°
2026-04-26 19:56 43.70679 7.53486 36193 ft 461 kts 53°
2026-04-26 19:56 43.74386 7.60714 36186 ft 461 kts 53°
2026-04-26 19:57 43.78089 7.67959 36192 ft 461 kts 53°
2026-04-26 19:57 43.81946 7.75029 36187 ft 459 kts 45°
2026-04-26 19:58 43.86798 7.80704 36188 ft 456 kts 36°
2026-04-26 19:58 43.91817 7.86095 36187 ft 457 kts 36°
2026-04-26 19:59 43.96684 7.91763 36195 ft 458 kts 42°
2026-04-26 19:59 44.01257 7.97914 36192 ft 458 kts 42°
2026-04-26 20:00 44.05825 8.04069 36192 ft 457 kts 42°
2026-04-26 20:00 44.10386 8.10232 36189 ft 457 kts 42°
2026-04-26 20:01 44.14943 8.16399 36198 ft 457 kts 42°
2026-04-26 20:01 44.19494 8.22574 36192 ft 456 kts 43°
2026-04-26 20:02 44.24038 8.28759 36188 ft 456 kts 43°
2026-04-26 20:02 44.27812 8.33899 36186 ft 456 kts 43°
2026-04-26 20:03 44.33115 8.41148 36194 ft 456 kts 42°
2026-04-26 20:03 44.37646 8.47364 36184 ft 457 kts 43°
2026-04-26 20:04 44.42152 8.53547 36178 ft 457 kts 42°
2026-04-26 20:04 44.46726 8.59809 36172 ft 457 kts 42°
2026-04-26 20:05 44.51239 8.66001 36173 ft 457 kts 42°
2026-04-26 20:05 44.55775 8.72249 36173 ft 457 kts 42°
2026-04-26 20:06 44.60307 8.78509 36171 ft 457 kts 42°
2026-04-26 20:06 44.64839 8.84775 36171 ft 457 kts 42°
2026-04-26 20:07 44.69367 8.91054 36168 ft 458 kts 42°
2026-04-26 20:07 44.73894 8.97346 36159 ft 458 kts 42°
2026-04-26 20:08 44.78418 9.03653 36157 ft 458 kts 42°
2026-04-26 20:08 44.82942 9.09972 36152 ft 458 kts 42°
2026-04-26 20:09 44.87466 9.16301 36143 ft 458 kts 42°
2026-04-26 20:09 44.91981 9.22645 36137 ft 458 kts 42°
2026-04-26 20:10 44.96493 9.28999 36123 ft 458 kts 42°
2026-04-26 20:10 45.01002 9.35363 36110 ft 458 kts 42°
2026-04-26 20:11 45.05484 9.41689 36108 ft 459 kts 42°
2026-04-26 20:12 45.12248 9.51276 36087 ft 459 kts 42°
2026-04-26 20:12 45.16756 9.57679 36077 ft 459 kts 42°
2026-04-26 20:13 45.21263 9.64104 36080 ft 460 kts 42°
2026-04-26 20:13 45.25772 9.70539 36100 ft 460 kts 42°
2026-04-26 20:14 45.30280 9.76990 36114 ft 460 kts 42°
2026-04-26 20:14 45.34783 9.83455 36111 ft 460 kts 42°
2026-04-26 20:15 45.39282 9.89938 36088 ft 461 kts 42°
2026-04-26 20:15 45.43780 9.96439 36089 ft 461 kts 42°
2026-04-26 20:16 45.48285 10.02946 36093 ft 461 kts 42°
2026-04-26 20:16 45.52788 10.09467 36103 ft 461 kts 42°
2026-04-26 20:17 45.57287 10.15997 36113 ft 461 kts 43°
2026-04-26 20:17 45.61782 10.22544 36117 ft 461 kts 42°
2026-04-26 20:18 45.66272 10.29098 36127 ft 461 kts 43°
2026-04-26 20:18 45.70756 10.35666 36180 ft 461 kts 43°
2026-04-26 20:19 45.75244 10.42234 36175 ft 461 kts 43°
2026-04-26 20:19 45.79720 10.48818 36185 ft 461 kts 43°
2026-04-26 20:20 45.84190 10.55417 36198 ft 461 kts 43°
2026-04-26 20:20 45.88662 10.62026 36226 ft 461 kts 43°
2026-04-26 20:21 45.93419 10.68101 36222 ft 455 kts 30°
2026-04-26 20:21 45.98072 10.71462 36220 ft 448 kts 16°
2026-04-26 20:22 46.03934 10.74496 36223 ft 448 kts 16°
2026-04-26 20:22 46.09792 10.77557 36243 ft 448 kts 17°
2026-04-26 20:23 46.15647 10.80627 36261 ft 448 kts 16°
2026-04-26 20:23 46.21500 10.83697 36273 ft 448 kts 17°
2026-04-26 20:24 46.27363 10.86780 36118 ft 449 kts 17°
2026-04-26 20:24 46.30294 10.88322 35866 ft 448 kts 16°
2026-04-26 20:24 46.33226 10.89864 35615 ft 449 kts 16°
2026-04-26 20:24 46.36164 10.91408 35371 ft 449 kts 16°
2026-04-26 20:25 46.39105 10.92959 35122 ft 450 kts 16°
2026-04-26 20:25 46.41053 10.93989 34873 ft 451 kts 16°
2026-04-26 20:25 46.44999 10.96083 34569 ft 452 kts 17°
2026-04-26 20:25 46.47944 10.97655 34046 ft 451 kts 17°
2026-04-26 20:26 46.50852 10.99206 33158 ft 452 kts 17°
2026-04-26 20:26 46.53804 11.00777 32517 ft 449 kts 17°
2026-04-26 20:26 46.56722 11.02331 31935 ft 444 kts 17°
2026-04-26 20:26 46.59614 11.03873 31347 ft 441 kts 17°
2026-04-26 20:27 46.62493 11.05368 30713 ft 437 kts 13°
2026-04-26 20:27 46.65453 11.06297 30014 ft 433 kts
2026-04-26 20:27 46.68426 11.06512 29432 ft 424 kts 355°
2026-04-26 20:27 46.71358 11.06486 28901 ft 419 kts 356°
2026-04-26 20:28 46.74257 11.06479 28350 ft 414 kts 356°
2026-04-26 20:28 46.77121 11.06487 27823 ft 409 kts 356°
2026-04-26 20:28 46.79959 11.06500 27299 ft 406 kts 356°
2026-04-26 20:28 46.82780 11.06509 26775 ft 403 kts 355°
2026-04-26 20:29 46.85543 11.06127 26281 ft 396 kts 345°
2026-04-26 20:29 46.88168 11.05057 25807 ft 389 kts 335°
2026-04-26 20:29 46.90626 11.03459 25374 ft 386 kts 333°
2026-04-26 20:29 46.93058 11.01815 24938 ft 384 kts 332°
2026-04-26 20:30 46.95478 11.00192 24508 ft 381 kts 332°
2026-04-26 20:30 46.97889 10.98604 24082 ft 379 kts 333°
2026-04-26 20:30 47.00290 10.97045 23634 ft 377 kts 333°
2026-04-26 20:30 47.02682 10.95500 23178 ft 375 kts 333°
2026-04-26 20:31 47.05060 10.93966 22751 ft 372 kts 333°
2026-04-26 20:31 47.07423 10.92434 22347 ft 370 kts 333°
2026-04-26 20:31 47.09764 10.90907 21911 ft 366 kts 333°
2026-04-26 20:31 47.12085 10.89389 21507 ft 364 kts 333°
2026-04-26 20:32 47.14387 10.87876 21094 ft 361 kts 333°
2026-04-26 20:32 47.16671 10.86370 20684 ft 359 kts 333°
2026-04-26 20:32 47.18941 10.84868 20277 ft 357 kts 333°
2026-04-26 20:32 47.21197 10.83378 19879 ft 354 kts 334°
2026-04-26 20:33 47.23441 10.81899 19471 ft 352 kts 334°
2026-04-26 20:33 47.25668 10.80434 19069 ft 351 kts 334°
2026-04-26 20:33 47.27892 10.78968 18667 ft 349 kts 334°
2026-04-26 20:33 47.30107 10.77511 18255 ft 348 kts 334°
2026-04-26 20:34 47.32310 10.76059 17848 ft 346 kts 334°
2026-04-26 20:34 47.34504 10.74610 17454 ft 345 kts 334°
2026-04-26 20:34 47.36686 10.73165 17060 ft 343 kts 334°
2026-04-26 20:34 47.38840 10.71667 16679 ft 341 kts 328°
2026-04-26 20:35 47.40807 10.69757 16285 ft 338 kts 323°
2026-04-26 20:35 47.42734 10.67781 15906 ft 336 kts 323°
2026-04-26 20:35 47.44652 10.65822 15524 ft 335 kts 323°
2026-04-26 20:35 47.46567 10.63872 15144 ft 333 kts 323°
2026-04-26 20:36 47.48447 10.61955 14780 ft 332 kts 323°
2026-04-26 20:36 47.50343 10.60017 14402 ft 331 kts 323°
2026-04-26 20:36 47.52235 10.58082 14022 ft 330 kts 323°
2026-04-26 20:36 47.54115 10.56160 13615 ft 327 kts 323°
2026-04-26 20:37 47.55982 10.54252 13244 ft 326 kts 323°
2026-04-26 20:37 47.57839 10.52346 12871 ft 324 kts 323°
2026-04-26 20:37 47.59684 10.50446 12500 ft 322 kts 323°
2026-04-26 20:37 47.61516 10.48552 12131 ft 320 kts 323°
2026-04-26 20:38 47.63338 10.46662 11757 ft 319 kts 323°
2026-04-26 20:38 47.65149 10.44780 11388 ft 317 kts 323°
2026-04-26 20:38 47.66955 10.42909 11032 ft 316 kts 323°
2026-04-26 20:38 47.68740 10.41066 10803 ft 308 kts 323°
2026-04-26 20:39 47.70478 10.39270 10561 ft 301 kts 323°
2026-04-26 20:39 47.72164 10.37480 10320 ft 294 kts 319°
2026-04-26 20:39 47.73493 10.35258 10079 ft 285 kts 301°
2026-04-26 20:39 47.74287 10.32604 9819 ft 280 kts 284°
2026-04-26 20:40 47.74514 10.29750 9550 ft 279 kts 269°
2026-04-26 20:40 47.74466 10.26874 9289 ft 278 kts 268°
2026-04-26 20:40 47.74426 10.24000 9030 ft 278 kts 269°
2026-04-26 20:40 47.74387 10.21132 8773 ft 277 kts 269°
2026-04-26 20:41 47.74349 10.18270 8509 ft 277 kts 269°
2026-04-26 20:41 47.74309 10.15414 8264 ft 276 kts 269°
2026-04-26 20:41 47.74267 10.12570 8057 ft 274 kts 269°
2026-04-26 20:41 47.74224 10.09737 8001 ft 275 kts 269°
2026-04-26 20:42 47.74181 10.06898 8007 ft 275 kts 269°
2026-04-26 20:42 47.74140 10.04062 8013 ft 275 kts 269°
2026-04-26 20:42 47.74102 10.01225 8010 ft 275 kts 269°
2026-04-26 20:42 47.74060 9.98399 8007 ft 273 kts 269°
2026-04-26 20:43 47.74018 9.95577 8001 ft 274 kts 269°
2026-04-26 20:43 47.73974 9.92740 8001 ft 275 kts 269°
2026-04-26 20:43 47.73930 9.89904 7947 ft 275 kts 269°
2026-04-26 20:43 47.73885 9.87061 7829 ft 276 kts 269°
2026-04-26 20:44 47.73835 9.84218 7723 ft 275 kts 268°
2026-04-26 20:44 47.73780 9.81386 7614 ft 273 kts 268°
2026-04-26 20:44 47.73727 9.78566 7507 ft 274 kts 268°
2026-04-26 20:44 47.73673 9.75746 7400 ft 273 kts 269°
2026-04-26 20:45 47.73620 9.72932 7294 ft 272 kts 268°
2026-04-26 20:45 47.73568 9.70122 7185 ft 274 kts 269°
2026-04-26 20:45 47.73516 9.67287 7067 ft 275 kts 269°
2026-04-26 20:45 47.73463 9.64464 7000 ft 267 kts 269°
2026-04-26 20:46 47.73415 9.61803 7005 ft 249 kts 268°
2026-04-26 20:46 47.73368 9.59318 7007 ft 235 kts 268°
2026-04-26 20:46 47.73321 9.56907 7010 ft 233 kts 269°
2026-04-26 20:46 47.73275 9.54509 7010 ft 232 kts 268°
2026-04-26 20:47 47.73226 9.52113 7010 ft 232 kts 268°
2026-04-26 20:47 47.73192 9.50524 7011 ft 232 kts 268°
2026-04-26 20:47 47.73123 9.47322 7010 ft 232 kts 268°
2026-04-26 20:47 47.73070 9.44927 7011 ft 232 kts 268°
2026-04-26 20:48 47.73020 9.42563 7011 ft 232 kts 268°
2026-04-26 20:48 47.72920 9.40138 7011 ft 232 kts 261°
2026-04-26 20:48 47.72485 9.37867 7010 ft 232 kts 246°
2026-04-26 20:48 47.71717 9.35756 6986 ft 233 kts 240°
2026-04-26 20:49 47.70903 9.33675 6987 ft 233 kts 240°
2026-04-26 20:49 47.70094 9.31595 6987 ft 233 kts 240°
2026-04-26 20:49 47.69285 9.29517 6917 ft 232 kts 240°
2026-04-26 20:49 47.68480 9.27451 6589 ft 231 kts 240°
2026-04-26 20:50 47.67671 9.25383 6186 ft 233 kts 240°
2026-04-26 20:50 47.66856 9.23302 5809 ft 234 kts 240°
2026-04-26 20:50 47.66040 9.21215 5466 ft 234 kts 239°
2026-04-26 20:50 47.65187 9.19176 5143 ft 232 kts 227°
2026-04-26 20:51 47.63891 9.17898 4862 ft 224 kts 192°
2026-04-26 20:51 47.62372 9.17899 4449 ft 219 kts 158°
2026-04-26 20:51 47.61049 9.18972 4057 ft 218 kts 145°
2026-04-26 20:51 47.59760 9.20118 3982 ft 217 kts 144°
2026-04-26 20:52 47.58641 9.21593 3983 ft 215 kts 124°
2026-04-26 20:52 47.57945 9.23527 3984 ft 213 kts 105°
2026-04-26 20:52 47.57743 9.25694 3981 ft 214 kts 85°
2026-04-26 20:52 47.58055 9.27770 3974 ft 200 kts 66°
2026-04-26 20:53 47.58701 9.29510 4002 ft 189 kts 60°
2026-04-26 20:53 47.59351 9.31171 3990 ft 185 kts 60°
2026-04-26 20:53 47.59991 9.32810 3949 ft 184 kts 60°
2026-04-26 20:53 47.60629 9.34444 3787 ft 182 kts 60°
2026-04-26 20:54 47.61262 9.36064 3554 ft 181 kts 60°
2026-04-26 20:54 47.61889 9.37673 3340 ft 180 kts 60°
2026-04-26 20:54 47.62506 9.39254 3091 ft 173 kts 60°
2026-04-26 20:54 47.63087 9.40745 2863 ft 161 kts 60°
2026-04-26 20:55 47.63612 9.42093 2673 ft 145 kts 59°
2026-04-26 20:55 47.64103 9.43355 2460 ft 139 kts 59°
2026-04-26 20:55 47.64582 9.44586 2265 ft 137 kts 59°
2026-04-26 20:55 47.65057 9.45807 2074 ft 137 kts 59°
2026-04-26 20:56 47.65530 9.47024 1884 ft 136 kts 59°
2026-04-26 20:56 47.66009 9.48257 1693 ft 140 kts 59°
2026-04-26 20:56 47.66491 9.49498 1510 ft 138 kts 59°
2026-04-26 20:56 47.66955 9.50703 1382 ft 126 kts 60°
2026-04-26 20:57 47.67306 9.51593 1375 ft 61 kts 59°
2026-04-26 20:57 47.67383 9.51788 1374 ft 6 kts 59°
2026-04-26 20:57 47.67421 9.51885 1373 ft 16 kts 59°
2026-04-26 20:57 47.67475 9.52038 1374 ft 15 kts 86°
2026-04-26 20:58 47.67430 9.52102 1374 ft 7 kts 148°
2026-04-26 20:58 47.67393 9.52122 1374 ft 5 kts 171°
2026-04-26 20:58 47.67364 9.52121 1376 ft 4 kts 185°
2026-04-26 20:58 47.67343 9.52120 1376 ft 2 kts 168°
2026-04-26 20:59 47.67337 9.52130 1374 ft 1 kts 129°
2026-04-26 20:59 47.67336 9.52140 1374 ft 5 kts 106°
2026-04-26 20:59 47.67354 9.52182 1373 ft 3 kts 65°
2026-04-26 20:59 47.67354 9.52207 1374 ft 2 kts 101°
2026-04-26 21:00 47.67350 9.52219 1376 ft 1 kts 115°
2026-04-26 21:00 47.67316 9.52251 1374 ft 5 kts 158°
2026-04-26 21:00 47.67308 9.52247 1376 ft 2 kts 199°
2026-04-26 21:00 47.67304 9.52241 1374 ft 0 kts 219°
2026-04-26 21:02 47.67307 9.52235 1375 ft 0 kts 176°